Gold Country Challenge - 2 DAY Inventory & 10th Flight Pull

Station: Loft Fly Inventory - T Race

Distance: 10 Miles

Release: 05-Jun-2020 09:00

Weather Release: 2 Days SAT/SUN    Arrival: Pulling 10th Flight

Wind at Release:     Wind at Arrival:

Temp at Release: °    Temp at Arrival: °

Lofts: 105

Birds: 449

Clocked: 442

Pulling 10th Flight + Hand Scan. ** 2 Days ** Youngest 30 Birds Not Included
Drops Pos Breeder Pigeon Name Color Sex Ent Arrival Speed To Win Elg PdChamp
1 Denis Eastwood - CA 2102-AU20-HANG SLT H 1 09:17:43.90 992.574 00:00:00 Yes
2 Cloux Loft - CO 20716-AU20-FH BB H 1 09:18:24.40 956.175 00:00:40 Yes
3 John & Omelio - NM 20757-AU20-NMRP BB H 1 09:18:52.20 932.697 00:01:08 Yes
4 Wonderwings Lofts - CA 1883-AU20-MAN Sky Warrior 2 PIED H 1 09:19:17.10 912.626 00:01:33 Yes
5 PNWC - ID 0032-AU20-PNWC Pair# 13 BC H 1 09:21:47.10 807.895 00:04:03 Yes
6 Perfection Loft - KS 13028-AU20-AA BB H 1 09:22:13.20 792.079 00:04:29 Yes
7 Double J Loft Of Tx. - TX 0105-AU20-WACO 263 X 1611 BC H 1 09:22:32.40 780.834 00:04:48 Yes
8 Jim Cain - CA 3243-AU20-FSC BB H 1 09:22:54.10 768.503 00:05:10 Yes
9 Bieu Tran - CA 0061-AU20-HJ BC H 1 09:23:16.90 755.960 00:05:33 Yes
10 Refried Dreams - AZ 0241-IF20-PSC Bonte Bandit GRIZ H 1 09:23:41.10 743.086 00:05:57 Yes
11 Rueter Family Loft - OR 4615-AU20-CORP BB H 1 09:24:47.30 710.011 00:07:03 Yes
12 K. B. Racing Lofts - CA 0407-AU20-POP Baby Girl BB H 1 09:25:06.20 701.102 00:07:22 Yes
13 Bieu Tran - CA 0058-AU20-HJ BB H 2 09:25:30.20 690.106 00:07:46 Yes
14 Partridge Family Loft - CA 2226-AU20-PASO BCWF H 1 09:25:51.30 680.719 00:08:07 Yes
15 G & J Lofts - CA 0078-AU20-GJ Checker Out BC H 1 09:26:13.00 671.329 00:08:29 Yes
16 Terry-M-Loft - NV 0124-AU20-RENO BB H 1 09:26:32.00 663.317 00:08:48 Yes
17 Scm Lofts - CA 24655-AU20-JEDD BCWF H 1 09:27:55.80 630.147 00:10:12 Yes
18 B S Lofts - CA 13307-AU20-JEDD 3057 & 877 BB H 1 09:28:33.60 616.246 00:10:50 Yes
19 Bieu Tran - CA 0031-AU20-HAY BC H 3 09:28:52.30 609.594 00:11:08 Yes
20 Watson & Williams - NV 2177-AU20-HANG BBWF H 1 09:29:14.20 601.984 00:11:30 Yes
21 Allison Ranch - CA 1154-AU20-FSC MLY H 1 09:29:41.70 592.692 00:11:58 Yes
22 Perfection Loft - KS 13030-AU20-AA BBWF H 2 09:30:00.30 586.569 00:12:16 Yes
23 Gomez Loft - CA 2641-AU20-CHP BB H 1 09:30:24.50 578.789 00:12:41 Yes
24 Zhengloft - FL 0169-IF20-ZHEN BB H 1 09:30:47.40 571.614 00:13:03 Yes
25 John V. Partridge - CA 2006-AU20-PASO Mr. Stevie MLY H 1 09:31:10.20 564.645 00:13:26 Yes
26 Dan & Greg Coury - AZ 20005-AU20-PEGA BC H 1 09:31:32.40 558.022 00:13:48 Yes
27 Christopher Loft - UT 20113-AU20-GS DC H 1 09:31:51.70 552.388 00:14:08 Yes
28 Bisda / Sangalang - CA 2173-AU20-FOYS Astrid BB H 1 09:32:22.10 543.741 00:14:38 Lost
29 Just Lucky - CA 0322-AU20-HAY BB H 1 09:32:43.20 537.897 00:14:59 Yes
30 John Gutierrez - NM 0227-AU20-GUTZ Rudy/Gld BB H 1 09:34:03.00 516.887 00:16:19 Yes
31 John Gutierrez - NM 0229-AU20-GUTZ 931/Dyk BBSP H 2 09:34:24.30 511.554 00:16:40 Yes
32 Geronimo Loft - MI 5777-AU20-CRAZ BB H 1 09:34:49.70 505.336 00:17:06 Yes
33 Portland Loft - OR 2523-AU20-PNW BC H 1 09:35:12.70 499.834 00:17:29 Yes
34 Mtm Lofts - MT 0128-AU20-BMT BB C 1 09:35:30.50 495.658 00:17:47 Yes
35 Whiskey Hollow Loft - TX 0010-AU20-WACO BC H 1 09:35:54.10 490.228 00:18:10 Lost
36 American Star Racing Pigeons - CA 0122-AU20-ASTR BB H 1 09:36:13.50 485.852 00:18:30 Yes
37 John Hedderson - CA 0033-AU20-HEDD 801x8002 BB H 1 09:36:37.60 480.524 00:18:54 Yes
38 Stark Loft - CA 2005-AU20-HANG Ruby Red RDST H 1 09:36:57.60 476.190 00:19:14 Yes
39 Winwin Loft - CA 7301-AU20-JEDD BC H 1 09:37:29.10 469.521 00:19:45 Yes
40 F-R-E-L Syndicate - CA 16303-AU20-AA ATHENE BC H 1 09:37:46.80 465.855 00:20:03 Yes
41 H & H Flying Circus - CA 0306-AU20-ML BC H 1 09:38:12.70 460.592 00:20:29 Yes
42 Zhengloft - FL 0104-IF20-ZHEN BBSP H 2 09:38:31.30 456.886 00:20:47 Yes
43 Al Shulman - CA 2121-AU20-WSJ PIED H 1 09:39:08.10 449.725 00:21:24 Yes
44 R & D Racing 2 - ON 4457-AU20-AA DC H 1 09:39:53.20 441.250 00:22:09 Yes
45 Emmalyn & Carelyn Loft - CA 0708-AU20-CEYX BB H 1 09:40:23.30 435.769 00:22:39 Yes
46 Marengo Creek Farms - AL 3526-AU20-MCF BB H 1 09:40:53.50 430.406 00:23:10 Yes
47 Euro Dead - CA 29163-AU20-JEDD S-7 C-6659 BB H 1 09:41:24.80 424.984 00:23:41 Yes
48 Gottruhm - CA 0371-AU20-POP BB H 1 09:41:54.90 419.897 00:24:11 Yes
49 Genesis Syndicate Loft - AZ 0579-AU20-GENS BC H 1 09:42:30.20 414.085 00:24:46 Yes
50 Peters - GA 0004-AU20-PETE HI JACK BB H 1 09:43:05.80 408.384 00:25:22 Yes
51 Refried Dreams - AZ 0204-IF20-PSC Lo-La Cruz BBSP H 2 09:43:51.10 401.353 00:26:07 Yes
52 Crazy Al & Chris Melucci - CO 5717-AU20-CRAZ BB H 1 09:44:19.10 397.127 00:26:35 Lost
53 Callahan Loft - MO 0952-AU20-AA BB H 1 09:45:25.10 387.509 00:27:41 Yes
54 Crazy Al & Chris Melucci - CO 15702-AU20-AA PIED H 2 09:45:52.20 383.693 00:28:08 Yes
55 Denis Eastwood - CA 2111-AU20-HANG BB H 2 09:46:26.70 378.943 00:28:43 Yes
56 Scm Lofts - CA 24652-AU20-JEDD BC H 2 09:47:02.50 374.136 00:29:19 Yes
57 Alaniz Loft 🇲🇽 - IL 0098-AU20-ALNZ BB H 1 09:47:30.60 370.448 00:29:47 Yes
58 A.D.S Hilltop Family Loft - NJ 57095-AU20-ARPU KANSAS CITY MAC/SKYE DC H 1 09:47:58.90 366.807 00:30:15 Yes
59 Dan & Greg Coury - AZ 0511-AU20-AONE BCSP H 2 09:48:24.20 363.611 00:30:40 Yes
60 Do Drop In Loft - NC 0077-IF20-TRC Wassup PEN H 1 09:48:49.40 360.483 00:31:06 Yes
61 Silicon Valley Syndicate - CA 20029-AU20-SVS BB H 1 09:49:19.60 356.805 00:31:36 Yes
62 Genesis Syndicate Loft - AZ 0560-AU20-GENS BCWF H 2 09:49:48.10 353.402 00:32:04 Yes
63 A-Lo Loft/Nemelka - UT 0020-AU20-NRPL Goessen X 7044 DC C 1 09:50:23.20 349.299 00:32:39 Yes
64 Mile High - CO 2004-AU20-MILE SUN FORGER BC H 1 09:50:57.20 345.414 00:33:13 Lost
65 Sports House Pigeons - CA 5502-AU20-JEDD BB H 1 09:51:48.10 339.757 00:34:04 Yes
66 Loft By Augustine - KS 0121-AU20-SWK BBWF H 1 09:52:16.90 336.638 00:34:33 Yes
67 Crazy Al & Chris Melucci - CO 15705-AU20-AA DCWF H 3 09:58:59.90 298.314 00:41:16 Yes
68 Valhalla Loft - CA 2023-AU20-WSJ BB H 1 10:04:20.10 273.568 00:46:36 Yes
69 John Hedderson - CA 0072-AU20-HEDD 6855x6853c BCSP H 2 10:07:54.80 259.154 00:50:11 Yes
70 Bieu Tran - CA 0821-AU20-HAY BCWF H 4 10:08:25.90 257.191 00:50:42 Yes
71 John V. Partridge - CA 2115-AU20-PASO King Bond BB H 2 10:08:59.90 255.079 00:51:16 Yes
72 Rodriguez Loft - TX 5454-AU20-JEDD INB55-BLAD BLK H 1 10:09:30.30 253.219 00:51:46 Yes
73 Racing Pigeon Mall - WA 1007-AU20-RPM BB H 1 10:09:53.10 251.842 00:52:09 Yes
74 Bieu Tran - CA 0098-AU20-TRAN BB H 5 10:10:20.20 250.225 00:52:36 Yes
75 Kereru Whare - CA 1177-AU20-FSC MLY H 1 10:10:43.90 248.828 00:53:00 Yes
76 Callahan Loft - MO 0954-AU20-AA WHIT H 2 10:11:09.80 247.318 00:53:26 Yes
77 Perfection Loft - KS 13048-AU20-AA BBSP H 3 10:11:34.90 245.873 00:53:51 Yes
78 B S Lofts - CA 13320-AU20-JEDD 127 & 1950 BBWF H 2 10:12:00.70 244.405 00:54:17 Yes
79 Kereru Whare - CA 1141-AU20-FSC PIED H 2 10:12:19.50 243.346 00:54:36 Yes
80 Stark Loft - CA 2008-AU20-HANG Blue Diamond BB C 2 10:12:38.90 242.263 00:54:55 Yes
81 Dads Loft - CA 20305-AU20-LAKE BC H 1 10:13:12.20 240.426 00:55:28 Yes
82 Kereru Whare - CA 1103-AU20-FSC BC H 3 10:13:34.80 239.195 00:55:51 Yes
83 Perfection Loft - KS 13037-AU20-AA BB H 4 10:13:59.90 237.843 00:56:16 Yes
84 Wonderwings Lofts - CA 1905-AU20-MAN Golden Challenger SBB H 2 10:14:59.60 234.688 00:57:16 Yes
85 Christopher Loft - UT 20125-AU20-GS BBT H 2 10:15:19.00 233.680 00:57:35 Yes
86 Silicon Valley Syndicate - CA 20003-AU20-SVS BC H 2 10:15:40.60 232.568 00:57:57 Yes
87 Double Diamond Tack & Feed - CA 2014-AU20-HANG Deep Keel BB H 1 10:16:06.00 231.275 00:58:22 Yes
88 Stark Loft - CA 2010-AU20-HANG Prospector BBSP C 3 10:20:15.60 219.287 01:02:32 Yes
89 Alaniz Loft 🇲🇽 - IL 0095-AU20-ALNZ BB H 2 10:20:37.40 218.299 01:02:54 Yes
90 Marengo Creek Farms - AL 3540-AU20-MCF BB H 2 10:20:59.30 217.315 01:03:15 Yes
91 Prout's Loft - CA 0474-AU20-PROU BB H 1 10:21:24.20 216.207 01:03:40 Yes
92 Callahan Loft - MO 0929-AU20-AA RGRZ H 3 10:22:39.80 212.912 01:04:56 Yes
93 Sierra Ranch - CA 0239-AU20-SR Goldie SMK H 1 10:28:19.00 199.283 01:10:35 Yes
94 Denis Eastwood - CA 2107-AU20-HANG BB H 3 10:28:41.00 198.459 01:10:57 Yes
95 Bieche-Stevenson - CA 0181-AU20-BIE SLT H 1 10:29:09.00 197.420 01:11:25 Yes
96 Skychargers 2 - CA 0109-AU20-CORO PIED H 1 10:29:29.10 196.681 01:11:45 Yes
97 A P C Loft - TX 20128-AU20-APC BBWF H 1 10:29:58.20 195.621 01:12:14 Yes
98 Double J Loft Of Tx. - TX 0106-AU20-WACO 263 X 1611 BC H 2 10:30:27.30 194.572 01:12:43 Yes
99 Kfly Racing Pigeon Loft - ID 2001-AU20-KFLY Peponita X Little Tenina BB H 1 10:30:52.10 193.687 01:13:08 Yes
100 Kereru Whare - CA 1142-AU20-FSC BC H 4 10:31:20.10 192.697 01:13:36 Yes

There are 431 bird records

Note: These Race Results are unofficial and subject to change until verified by the Race Committee and declared final.